Regional Weather Roundup
Issued by NWS New Orleans/Baton Rouge, LA

Home | Current Version | Previous Version | Text Only | Print | Product List | Glossary On
Versions: 1 2 3 4 5 6 7 8 9 10 11 12 13 14 15 16 17 18 19 20 21 22 23 24 25 26 27 28 29 30 31 32 33 34 35 36 37 38 39 40 41 42 43 44 45 46 47 48 49 50
000
ASUS44 KLIX 280011
RWRLIX
NEW ORLEANS REGIONAL WEATHER ROUNDUP
NATIONAL WEATHER SERVICE NEW ORLEANS LA
700 PM CDT THU AUG 27 2015

NOTE: "FAIR" INDICATES FEW OR NO CLOUDS BELOW 12,000 FEET WITH NO
      SIGNIFICANT WEATHER AND/OR OBSTRUCTIONS TO VISIBILITY.
      SKY/WX - SKY CONDITION AND SIGNIFICANT WEATHER.
      TMP - AIR TEMPERATURE.     DP    - DEWPOINT TEMPERATURE.
      RH  - RELATIVE HUMIDITY.   PRES  - PRESSURE.
      HI  - HEAT INDEX.          WCI   - WIND CHILL INDEX.

*  THESE STATIONS ARE NOT NWS OR FAA STATIONS AND ARE NOT UNDER
   NWS QUALITY CONTROL.

LAZ038-040-048-061>063-065>067-069-280100-
SOUTHEAST LOUISIANA

CITY           SKY/WX    TMP DP  RH WIND       PRES   REMARKS
N.O. AUDUBON     N/A     84  62  46 MISG        N/A
6HR MIN TEMP:  84; 6HR MAX TEMP:  90;

N.O. INTL ARPT   N/A     84  57  39 NE6       29.96R
6HR MIN TEMP:  83; 6HR MAX TEMP:  87;

N.O. LAKEFRONT   N/A     84  59  42 CALM      29.96S
6HR MIN TEMP:  81; 6HR MAX TEMP:  84;

N.O. DOWNTOWN*   N/A     86  57  37 N3        29.97R
6HR MIN TEMP:  82; 6HR MAX TEMP:  88;

RESERVE*         N/A     85  61  44 CALM      29.96S
6HR MIN TEMP:  85; 6HR MAX TEMP:  89;

SLIDELL          N/A     84  64  50 CALM      29.95S
6HR MIN TEMP:  83; 6HR MAX TEMP:  88;

BATON ROUGE      N/A     84  61  45 CALM      29.97R
6HR MIN TEMP:  84; 6HR MAX TEMP:  88;

BOOTHVILLE       N/A     83  63  50 VRB3      29.95F
6HR MIN TEMP:  82; 6HR MAX TEMP:  85;

BELLE CHASSE     N/A     83  61  47 E5        29.96R
6HR MIN TEMP:  83; 6HR MAX TEMP:  87;

BOGALUSA*      NOT AVBL
GALLIANO*        N/A     83  65  54 MISG      29.97R
6HR MIN TEMP:  83; 6HR MAX TEMP:  87;

NEW ROADS*       N/A     83  55  38 N6        29.97S
6HR MIN TEMP:  82; 6HR MAX TEMP:  86;

GONZALES*        N/A     82  66  59 CALM      29.95F
6HR MIN TEMP:  82; 6HR MAX TEMP:  87;

HAMMOND*         N/A     86  52  30 NE3       29.98R
HOUMA*         NOT AVBL
PORT FOURCHON* CLEAR     82  63  51 NE8       29.97S

$$

MSZ070-080>082-280100-
SOUTHERN MISSISSIPPI

CITY           SKY/WX    TMP DP  RH WIND       PRES   REMARKS
MCCOMB           N/A     85  57  38 NE5       29.98S
6HR MIN TEMP:  83; 6HR MAX TEMP:  89;

GULFPORT         N/A     84  61  45 N6        29.94R
6HR MIN TEMP:  84; 6HR MAX TEMP:  88;

BILOXI           N/A     84  63  49 N5        29.94R
6HR MIN TEMP:  84; 6HR MAX TEMP:  87;

PASCAGOULA       N/A     82  64  54 N3        29.94R
6HR MIN TEMP:  82; 6HR MAX TEMP:  89;

STENNIS ARPT*  PTCLDY    82  55  39 NE3       29.96R

$$

COASTAL OBSERVATIONS
LAKE AND NEARSHORE STATIONS

STATION/POSITION TIME  TEMP    WIND        PRES    WAVE
                       AIR SEA DIR/SP/G            HT/PER
                 (UTC) (F)     (DEG/KT/KT) (MB)    (FT/S)
PASCAGOULA       2300   87      40/  8/ 11 1013.0
WAVELAND YACHT   2300   84 84   80/  2/  6 1014.4
GRAND ISLE       2300   83 85   60/  5/  7 1014.6
SOUTHWEST PASS   2300   87 86   30/ 10/ 12 1014.8
NEW CANAL        2300   84 85   CALM  /  2 1013.7
SHELL BEACH      2300   86 84   CALM  /  2 1013.8

OFFSHORE STATIONS

STATION/POSITION TIME  TEMP    WIND        PRES    WAVE
                       AIR SEA DIR/SP/G            HT/PER
                 (UTC) (F)     (DEG/KT/KT) (MB)    (FT/S)
64 S DAUPHIN ISL 2350   80 87   10/  6/  8 1014.2    1/ 4

$$



USA.gov is the U.S. government's official web portal to all federal, state and local government web resources and services.